Retour au catalogue

STARLINK-6298

ActifCommunicationsVLEO
NORAD 56391·PAYLOAD·🇺🇸 United States

Lancé May 4, 2023 depuis Cape Canaveral Space Force Station

Loading…

Prochains Passages (prochaines 24 heures)

TLE

FraisSource: CelesTrak SupGP

Époque: Sep 14, 2026, 20:51 UTC

1 56391C 23061T   26257.86923611  .00018700  00000+0  67743-3 0  2576
2 56391  43.0027 209.2429 0001386 262.0511 159.4149 15.27564032    14

Suivez STARLINK-6298 en temps réel avec AllMySat

Download on the App Store